Regional Weather Roundup
Issued by NWS Wakefield, VA

Home | Current Version | Previous Version | Graphics & Text | Print | Product List | Glossary On
Versions: 1 2 3 4 5 6 7 8 9 10 11 12 13 14 15 16 17 18 19 20 21 22 23 24 25 26 27 28 29 30 31 32 33 34 35 36 37 38 39 40 41 42 43 44 45 46 47 48 49
000
ASUS41 KAKQ 191010
RWRAKQ

REGIONAL WEATHER ROUNDUP
NATIONAL WEATHER SERVICE WAKEFIELD VA
500 AM EST FRI DEC 19 2014

Note: "fair" indicates few or no clouds below 12,000 feet with no
significant weather and/or obstructions to visibility. * = Denotes
station may not report precipitation (e.g., rain,snow,etc.),
thunder or fog.

VAZ042-051-052>054-056-191100-
NORTHERN VIRGINIA

CITY           SKY/WX    TMP DP  RH WIND       PRES   REMARKS
WASH NATIONAL  CLOUDY    37  21  52 W7        30.13S
DULLES         CLOUDY    32  22  66 NW8       30.12S
FORT BELVOIR   CLOUDY    35  22  59 NW7       30.13S
QUANTICO       MOCLDY    35  21  56 N8        30.14R
FREDERICKSBRG* CLOUDY    36  25  65 NW3       30.12S
STAFFORD*      CLOUDY    31  24  73 CALM      30.16S
WARRENTON      PTCLDY    30  28  92 N3        30.11S
CULPEPER*      MOCLDY    30  25  80 CALM      30.12S
MANASSAS*      CLOUDY    34  25  69 N6        30.13R
LEESBURG*      CLOUDY    34  27  75 NW7       30.12S
WINCHESTER     CLOUDY    34  19  55 NW14      30.10F WCI  24
FRONT ROYAL*   CLOUDY    32  23  69 CALM      30.10S
LURAY*         PTSUNNY   32  27  80 CALM      30.10R
$$

VAZ048-049-060>072-079>083-191100-
CENTRAL AND SOUTH CENTRAL VIRGINIA

CITY           SKY/WX    TMP DP  RH WIND       PRES   REMARKS
RICHMOND       PTCLDY    34  23  64 N3        30.11S
CHESTERFIELD*  MOSUNNY   30  16  55 CALM      30.12S
PETERSBURG*    PTCLDY    27  26  96 CALM      30.12S
HANOVER        CLOUDY    32  26  78 CALM      30.13S
TAPPAHANNOCK*  CLOUDY    33  24  67 CALM      30.12S
QUINTON*       CLOUDY    31  28  89 CALM      30.11S
CHARLOTTSVILLE CLEAR     30  22  72 CALM      30.09F
GORDONSVILLE*  SUNNY     28  24  84 CALM      30.10S
ORANGE*        CLEAR     30  27  86 CALM      30.12S
LOUISA*        PTCLDY    27  25  93 CALM      30.09F
BUMPASS*       MOSUNNY   32  23  69 CALM      30.11S
FARMVILLE*     CLEAR     28  24  84 CALM      30.10S
CREWE*         SUNNY     27  24  90 CALM      30.10S
FORT PICKETT*  SUNNY     27  23  85 CALM      30.10S
CHASE CITY*    SUNNY     30  29  94 CALM      30.10S
CLARKSVILLE*   SUNNY     34  30  86 CALM      30.10S
SOUTH HILL*    PTCLDY    27  23  87 N3        30.16R
LAWRENCEVILLE* SUNNY     31  25  81 CALM      30.10S
EMPORIA*       CLEAR     28  27  93 CALM      30.12S
$$

VAZ088>098-191100-
SOUTHEAST VIRGINIA

CITY           SKY/WX    TMP DP  RH WIND       PRES   REMARKS
NORFOLK        CLEAR     36  29  75 CALM      30.10S
VIRGINIA BEACH PTCLDY    32  27  81 CALM      30.09S
NORFOLK NAVAL  CLEAR     38  27  64 NW7       30.11S
WEST POINT*    MOCLDY    33  28  81 CALM      30.13S
SALUDA*        PTSUNNY   35  25  66 N6        30.11R
NEWPORT NEWS   CLEAR     30  25  81 N3        30.11S
LANGLEY AFB    CLOUDY    37  28  70 N6        30.11S
FORT EUSTIS    CLEAR     33  27  78 N3        30.09F
WILLIAMSBURG*  PTCLDY    32  28  86 N3        30.11F
HR EXEC AP*    SUNNY     25  21  86 CALM      30.12S
FRANKLIN*      CLEAR     28  27  93 CALM      30.11S
WAKEFIELD      CLEAR     28  24  85 CALM      30.11F
$$

VAZ020-022-025-037-045-191100-
WEST CENTRAL AND SOUTHWEST VIRGINIA

CITY           SKY/WX    TMP DP  RH WIND       PRES   REMARKS
STAUNTON*      CLEAR     27  23  85 CALM      30.10S
WAYNESBORO*    MOSUNNY   27  22  84 CALM      30.07R
HOT SPRINGS VA PTCLDY    21  21 100 W10       29.96S WCI  10
LYNCHBURG      CLEAR     26  23  88 CALM      30.10F
DANVILLE       PTCLDY    39  20  46 NW6       30.12R
SOUTH BOSTON*  SUNNY     31  28  87 CALM      30.11R
MARTINSVILLE   CLEAR     34  21  59 CALM      30.13S
ROANOKE        CLEAR     34  19  54 W10       30.13F
BLACKSBURG     CLEAR     29  22  75 W6        30.13R
DUBLIN*        CLOUDY    33  24  69 W7        30.11S
MARION*        CLOUDY    34  16  46 NW13      30.10S
HILLSVILLE*    CLOUDY    32  22  67 N6        30.07S
RICHLANDS*     CLOUDY    30  23  76 W3        30.10S
WISE*          CLOUDY    32  27  80 N3        30.12S
ABINGDON*      CLOUDY    37  23  57 CALM      30.12S
$$

MDZ021>025-VAZ099-100-191100-
SOUTHERN MARYLAND AND THE DELMARVA PENINSULA

CITY           SKY/WX    TMP DP  RH WIND       PRES   REMARKS
PATUXENT RIVER PTCLDY    34  23  64 NW13      30.11R WCI  25
BAY BRIDGE APT   N/A     34  25  69 W10       30.10S
LEONARDTOWN    PTCLDY    32  23  69 CALM      30.13R
DOVER          CLOUDY    35  26  68 W8        30.05S
GEORGETOWN     CLOUDY    36  25  64 NW7       30.08R
EASTON         CLOUDY    37  27  69 NW10      30.13R
CAMBRIDGE      MOCLDY    36  27  69 NW8       30.09R
SALISBURY      CLOUDY    37  25  61 NW8       30.08S
OCEAN CITY     CLOUDY    35  26  69 NW6       30.08R
WALLOPS ISLAND CLOUDY    34  27  75 NW5       30.09S
ACCOMACK*      CLOUDY    36  28  75 NW6       30.09S
$$

NCZ012>017-030>032-191100-
NORTH CENTRAL AND EASTERN NORTH CAROLINA

CITY           SKY/WX    TMP DP  RH WIND       PRES   REMARKS
ROANOKE RAPIDS SUNNY     30  28  93 CALM      30.11S
RALEIGH        MOCLDY    42  27  55 CALM      30.11S
ELIZABETH CITY CLEAR     40  31  70 N7        30.10S
AHOSKIE*       CLEAR     28  27  96 CALM      30.11S
EDENTON*         N/A     31  29  92 CALM      30.10S
CURRITUCK*     CLEAR     33  30  89 CALM      30.10S
KILL DEVIL HLS CLEAR     40  34  80 N3        30.07S
MANTEO         CLEAR     35  34  96 CALM      30.08F
CAPE HATTERAS  MOCLDY    42  39  89 NW5       30.08S
TARBORO*       SUNNY     30  30 100 CALM      30.12R
GOLDSBORO      CLOUDY    35  35  98 CALM      30.09S
WASHINGTON     CLOUDY    36  33  90 CALM      30.11S
GREENVILLE     MOCLDY    34  34 100 CALM      30.11S
NEW BERN       CLEAR     38  33  82 CALM      30.10F
WILMINGTON     PTCLDY    35  33  92 CALM      30.09S
$$

VAZ048-191100-
ELSEWHERE

CITY           SKY/WX    TMP DP  RH WIND       PRES   REMARKS
HARRISBURG PA  CLOUDY    34  24  67 NW16      30.06S WCI  24
BALTIMORE      CLOUDY    34  23  64 W8        30.09F
ANNAPOLIS      CLOUDY    35  23  61 W6        30.10S
ANDREWS AFB    CLOUDY    34  21  60 NW8       30.10S
PHILADELPHIA   CLOUDY    37  25  61 W12       30.05S
HENDERSON NC   CLOUDY    39  22  51 NW5       30.09S
GREENSBORO     CLOUDY    41  25  53 NE3       30.09S
ROCKY MOUNT    PTCLDY    35  32  88 CALM      30.11S
$$

VAZ100-191100-
MARINE

STATION/POSITION TIME  TEMP    WIND        PRES    WAVE   SWELL
                       AIR SEA DIR/SP/G            HT/PER HT/PER
                 (UTC) (F)     (DEG/KT/KT) (MB)    (FT/S) (FT/S)
CAPE MAY NJ      1000   37 42  320/  4/ 14 1017.0S
LEWES DE         1000   36 42  300/ 16/ 19 1017.6S
15NM E FENWICK I 1000   38 47              1017.0F   3/ 5
OCEAN-CITY-INLET 1000   36 45  310/  8/ 12 1017.8S
WACHAPREAGUE VA  1000   35 43   CALM  /  2 1018.9F
THOMAS POINT MD  1000   35 41  300/ 12/ 14 1020.4S
GOOSES REEF MD   1000   36     VRB 16/ 19  1018.4R
COVE POINT MD    1000   35     330/ 14/ 19 1019.2R
SOLOMONS ISLAND  1000      44                N/A
BISHOPS HEAD MD  1000   35 39  320/  9/ 11 1018.7R
PINEY POINT MD   1000          350/ 14/ 16   N/A
POTOMAC MD       1000   37     340/ 12/ 14 1018.7R
CAMBRIDGE MD     1000   36 41  310/ 12/ 16 1018.9R
LEWISETTA VA     1000   36 43  320/  7/ 10 1019.5R
RAPPAHANNOCK LGT 1000          320/ 12/ 14 1019.5S
STINGRAY PT      1000   37     340/ 10/ 14 1019.8S
YORK RVR RNG VA  1000   36     330/  7/  8 1018.9R
YORKTOWN VA      1000   36 45  340/  8/  9 1019.2R
JAMESTOWN VA     1000   32      20/  4/  4   N/A
DOMINION TERM VA 1000   37      60/  1/  4 1019.3F
KIPTOPEKE VA     1000      49   10/  8/ 10   N/A
CHES BAY BRIDGE  1000   39 45  320/  9/ 11 1018.7S
CAPE HENRY VA    1000   39     330/ 11/ 14 1017.8S
CHESAPEAKE LGHT  0900   40     340/  9/ 11 1019.4F
WILLOUBY STN VA  1000   37     350/  7/  9 1019.6F
S CRANEY ISL VA  1000          340/  5/  7 1019.2F
CAPE HENRY BUOY  1000      48                N/A     2/11
1ST LANDING BUOY 1000   40     340/ 10/ 14 1018.7S
CAPE CHARLES BUO 1000      48                N/A     2/10   2/10
64NM E OF VA BCH 1000   44 55  320/ 10/ 14 1017.7F   3/ 5   2/ 5
DUCK PIER NC     1000   42 47  350/  6/  7 1017.8S
44100 DUCK FRF   1000      51                N/A     2/ 6   2/11
44056 DUCK FRF   1000      47                N/A     2/ 5
OREGON INLET NC  1000   42 50  300/  2/  3 1018.6F
HATTERAS NC      1000   47 53  310/  7/  9 1018.9S
DIAMOND SHLS NC  1000   48                 1018.6F   3/ 8
CAPE LOOKOUT NC  0900   47     340/  7/  8 1018.7F
$$


USA.gov is the U.S. government's official web portal to all federal, state and local government web resources and services.